East Milton, MA

2:41 AM EDT on October 23, 2017 (GMT -0400)
East Milton

Weather History for KMQE - January, 2014

Change the Weather History Date:

Monday, January 6, 2014

  Actual Average (KOWD) Record (KOWD)
Temperature  
Mean Temperature 42 °F -  
Max Temperature 57 °F 35 °F 69 °F (2007)
Min Temperature 25 °F 19 °F 6 °F (1999)
Degree Days  
Heating Degree Days 23    
Moisture  
Dew Point 41 °F    
Average Humidity 90    
Maximum Humidity 100    
Minimum Humidity 60    
Precipitation  
Precipitation 0.39 in - - ()
Sea Level Pressure  
Sea Level Pressure 29.52 in    
Wind  
Wind Speed 21 mph (SSW)    
Max Wind Speed 30 mph    
Max Gust Speed 46 mph    
Averages and records for this station are not official NWS values.
T = Trace of Precipitation, MM = Missing Value Source: NWS Daily Summary

Daily Weather History Graph

Daily Weather History Graph

Search for Another Location

Airport or City:

Trip Planner

Search our weather history database for the weather conditions in past years. The results will help you decide how hot, cold, wet, or windy it might be!

Date:

Astronomy

Jan. 06, 2014 Rise Set
Actual Time 7:13 AM EST 4:27 PM EST
Civil Twilight 6:41 AM EST 4:59 PM EST
Nautical Twilight 6:06 AM EST 5:34 PM EST
Astronomical Twilight 5:32 AM EST 6:08 PM EST
Moon 10:19 AM EST (1/6) 11:05 PM EST (1/6)
Length of Visible Light 10h 17m
Length of Day
9h 14m
Waxing Crescent, 34% of the Moon is Illuminated
Jan 6
Waxing Crescent
Jan 7
First Quarter
Jan 15
Full
Jan 24
Last Quarter
Jan 30
New

Hourly Weather History & Observations

Time (EST) Temp. Windchill Dew Point Humidity Pressure Visibility Wind Dir Wind Speed Gust Speed Precip Events Conditions
12:54 AM 45.0 °F 37.1 °F 44.1 °F 97% 29.87 in - SE 19.6 mph 27.6 mph 0.04 in   Unknown
1:54 AM 46.0 °F 39.0 °F 46.0 °F 100% 29.85 in - SSE 17.3 mph - 0.01 in   Unknown
2:54 AM 46.9 °F - 46.9 °F 100% 29.80 in - SSE 20.7 mph 32.2 mph 0.01 in   Unknown
3:54 AM 46.9 °F - 46.9 °F 100% 29.73 in - SSE 20.7 mph 28.8 mph 0.02 in   Unknown
4:54 AM 48.9 °F - 48.9 °F 100% 29.68 in - SSE 21.9 mph 32.2 mph 0.01 in   Unknown
5:54 AM 50.0 °F - 50.0 °F 100% 29.63 in - SSE 25.3 mph 42.6 mph 0.06 in   Unknown
6:54 AM 53.1 °F - 53.1 °F 100% 29.59 in - South 26.5 mph 38.0 mph 0.03 in   Unknown
7:54 AM 54.0 °F - 54.0 °F 100% 29.56 in - South 21.9 mph 40.3 mph 0.06 in   Unknown
8:54 AM 55.0 °F - 55.0 °F 100% 29.50 in - South 24.2 mph 38.0 mph 0.02 in   Unknown
9:54 AM 55.0 °F - 55.0 °F 100% 29.47 in - South 29.9 mph 42.6 mph 0.01 in   Unknown
10:54 AM 57.0 °F - 57.0 °F 100% 29.41 in - South 27.6 mph 46.0 mph 0.03 in   Unknown
11:54 AM 55.9 °F - 55.9 °F 100% 29.37 in - South 27.6 mph 44.9 mph 0.05 in   Unknown
12:54 PM 55.0 °F - 55.0 °F 100% 29.34 in - South 18.4 mph 26.5 mph 0.02 in   Unknown
1:54 PM 54.0 °F - 54.0 °F 100% 29.31 in - SSW 19.6 mph 27.6 mph 0.01 in   Unknown
2:54 PM 48.9 °F - 44.1 °F 83% 29.36 in - WSW 18.4 mph 33.4 mph N/A   Unknown
3:54 PM 44.1 °F 37.1 °F 41.0 °F 89% 29.36 in - West 15.0 mph 23.0 mph N/A   Unknown
4:54 PM 42.1 °F 35.2 °F 39.9 °F 92% 29.38 in - WSW 12.7 mph 20.7 mph N/A   Unknown
5:54 PM 34.0 °F 23.8 °F 32.0 °F 92% 29.41 in - West 16.1 mph 27.6 mph 0.01 in   Unknown
6:54 PM 33.1 °F 22.6 °F 28.0 °F 82% 29.43 in - West 16.1 mph 24.2 mph N/A   Unknown
7:54 PM 30.9 °F 18.4 °F 24.1 °F 76% 29.43 in - West 20.7 mph 27.6 mph N/A   Unknown
8:54 PM 28.9 °F 16.1 °F 18.0 °F 64% 29.46 in - WNW 19.6 mph 32.2 mph N/A   Unknown
9:54 PM 28.0 °F 14.9 °F 17.1 °F 63% 29.48 in - West 19.6 mph 32.2 mph N/A   Unknown
10:54 PM 27.0 °F 15.2 °F 16.0 °F 63% 29.50 in - West 15.0 mph 24.2 mph N/A   Unknown
11:54 PM 25.0 °F 11.7 °F 12.9 °F 60% 29.51 in - West 17.3 mph 29.9 mph N/A   Unknown